When you browse on this site, cookies collect data to enhance your experience and personalize the content and advertising you see.
Visit our Privacy Policy to learn more. By continuing to use the site, you agree to this use of cookies and data.
  • In Hungary
  • List of Countries
  • For 7 days
  • Water Temperature
  • Weather Map
  • News
  • Weather Widgets
  • user-avatar
    Login

    Hourly Weather Chiscas

    Today, 6 December, Friday

    Time Temperature Precipitation Wind Pressure Humidity
    00:00 +10°C° 0 mm 2 mps 568 mmHg 73%
    01:00 +10°C° 0 mm 2 mps 567 mmHg 73%
    02:00 +10°C° 0 mm 2 mps 567 mmHg 72%
    03:00 +10°C° 0 mm 2 mps 567 mmHg 70%
    04:00 +10°C° 0 mm 2 mps 567 mmHg 69%
    05:00 +12°C° 0 mm 2 mps 568 mmHg 67%
    06:00 +13°C° 0 mm 2 mps 569 mmHg 65%
    07:00 +14°C° 0 mm 2 mps 570 mmHg 63%
    08:00 +16°C° 0 mm 2 mps 571 mmHg 58%
    09:00 +18°C° 0 mm 2 mps 572 mmHg 53%
    10:00 +20°C° 0 mm 2 mps 573 mmHg 47%
    11:00 +21°C° 0 mm 2 mps 572 mmHg 49%
    12:00 +21°C° 0 mm 2 mps 572 mmHg 51%
    13:00 +21°C° 0 mm 2 mps 571 mmHg 53%
    14:00 +20°C° 0.1 mm 2 mps 570 mmHg 61%
    15:00 +20°C° 0.1 mm 1 mps 570 mmHg 68%
    16:00 +19°C° 0.1 mm 1 mps 569 mmHg 76%
    17:00 +16°C° 0.1 mm 1 mps 568 mmHg 79%
    18:00 +15°C° 0.1 mm 1 mps 568 mmHg 82%
    19:00 +13°C° 0.1 mm 1 mps 568 mmHg 85%
    20:00 +13°C° 0 mm 1 mps 568 mmHg 78%
    21:00 +12°C° 0 mm 1 mps 568 mmHg 71%
    22:00 +12°C° 0 mm 1 mps 568 mmHg 63%
    23:00 +12°C° 0 mm 1 mps 568 mmHg 63%

    Tomorrow, 7 December, Saturday

    Time Temperature Precipitation Wind Pressure Humidity
    00:00 +11°C° 0 mm 1 mps 568 mmHg 63%
    01:00 +11°C° 0 mm 1 mps 567 mmHg 63%
    02:00 +11°C° 0 mm 1 mps 567 mmHg 63%
    03:00 +11°C° 0 mm 1 mps 567 mmHg 64%
    04:00 +11°C° 0 mm 1 mps 567 mmHg 64%
    05:00 +12°C° 0 mm 1 mps 568 mmHg 64%
    06:00 +13°C° 0 mm 1 mps 568 mmHg 63%
    07:00 +14°C° 0 mm 1 mps 569 mmHg 63%
    08:00 +16°C° 0 mm 1 mps 570 mmHg 58%
    09:00 +19°C° 0 mm 1 mps 571 mmHg 54%
    10:00 +20°C° 0 mm 2 mps 572 mmHg 50%
    11:00 +20°C° 0 mm 2 mps 572 mmHg 51%
    12:00 +20°C° 0 mm 2 mps 571 mmHg 52%
    13:00 +21°C° 0 mm 2 mps 571 mmHg 53%
    14:00 +20°C° 0.2 mm 2 mps 570 mmHg 60%
    15:00 +19°C° 0.2 mm 2 mps 569 mmHg 67%
    16:00 +18°C° 0.2 mm 2 mps 569 mmHg 75%
    17:00 +16°C° 0.2 mm 1 mps 568 mmHg 81%
    18:00 +15°C° 0.2 mm 1 mps 568 mmHg 87%
    19:00 +12°C° 0.2 mm 0 mps 567 mmHg 94%
    20:00 +11°C° 0 mm 0 mps 567 mmHg 90%
    21:00 +11°C° 0 mm 0 mps 567 mmHg 85%
    22:00 +10°C° 0 mm 0 mps 567 mmHg 81%
    23:00 +10°C° 0 mm 0 mps 567 mmHg 80%

    Day after tomorrow, 8 December, Sunday

    Time Temperature Precipitation Wind Pressure Humidity
    00:00 +10°C° 0 mm 0 mps 567 mmHg 78%
    01:00 +10°C° 0 mm 0 mps 566 mmHg 76%
    02:00 +10°C° 0 mm 0 mps 566 mmHg 76%
    03:00 +11°C° 0 mm 1 mps 566 mmHg 75%
    04:00 +11°C° 0 mm 1 mps 566 mmHg 74%
    05:00 +12°C° 0 mm 1 mps 567 mmHg 73%
    06:00 +13°C° 0 mm 1 mps 568 mmHg 71%
    07:00 +13°C° 0 mm 0 mps 569 mmHg 69%
    08:00 +15°C° 0 mm 1 mps 570 mmHg 67%
    09:00 +18°C° 0 mm 1 mps 571 mmHg 64%
    10:00 +20°C° 0 mm 1 mps 571 mmHg 62%
    11:00 +20°C° 0.2 mm 1 mps 571 mmHg 66%
    12:00 +20°C° 0.2 mm 1 mps 570 mmHg 69%
    13:00 +19°C° 0.2 mm 2 mps 570 mmHg 73%
    14:00 +20°C° 1.1 mm 1 mps 569 mmHg 78%
    15:00 +19°C° 1.1 mm 1 mps 568 mmHg 83%
    16:00 +18°C° 1.1 mm 1 mps 568 mmHg 88%
    17:00 +16°C° 0.7 mm 1 mps 568 mmHg 91%
    18:00 +15°C° 0.7 mm 1 mps 568 mmHg 94%
    19:00 +13°C° 0.7 mm 0 mps 568 mmHg 97%
    20:00 +13°C° 0.2 mm 0 mps 568 mmHg 96%
    21:00 +12°C° 0.2 mm 0 mps 568 mmHg 96%
    22:00 +12°C° 0.2 mm 0 mps 568 mmHg 95%
    23:00 +12°C° 0.1 mm 0 mps 568 mmHg 95%

    9 December, Monday

    Time Temperature Precipitation Wind Pressure Humidity
    00:00 +12°C° 0.1 mm 0 mps 567 mmHg 94%
    01:00 +11°C° 0.1 mm 0 mps 567 mmHg 93%
    02:00 +11°C° 0.1 mm 0 mps 567 mmHg 93%
    03:00 +12°C° 0.1 mm 1 mps 567 mmHg 93%
    04:00 +12°C° 0.1 mm 1 mps 567 mmHg 93%
    05:00 +13°C° 0 mm 1 mps 567 mmHg 90%
    06:00 +13°C° 0 mm 1 mps 568 mmHg 87%
    07:00 +14°C° 0 mm 1 mps 569 mmHg 84%
    08:00 +15°C° 0 mm 1 mps 570 mmHg 80%
    09:00 +18°C° 0 mm 1 mps 571 mmHg 76%
    10:00 +19°C° 0 mm 2 mps 572 mmHg 71%
    11:00 +19°C° 0.4 mm 2 mps 571 mmHg 71%
    12:00 +19°C° 0.4 mm 2 mps 571 mmHg 71%
    13:00 +19°C° 0.4 mm 2 mps 570 mmHg 70%
    14:00 +19°C° 0.7 mm 2 mps 569 mmHg 72%
    15:00 +18°C° 0.7 mm 2 mps 569 mmHg 74%
    16:00 +19°C° 0.7 mm 1 mps 568 mmHg 76%
    17:00 +16°C° 0.3 mm 1 mps 567 mmHg 80%
    18:00 +14°C° 0.3 mm 1 mps 567 mmHg 84%
    19:00 +12°C° 0.3 mm 1 mps 566 mmHg 87%
    20:00 +12°C° 0 mm 2 mps 567 mmHg 80%
    21:00 +10°C° 0 mm 2 mps 567 mmHg 73%
    22:00 +9°C° 0 mm 2 mps 567 mmHg 65%
    23:00 +9°C° 0 mm 2 mps 566 mmHg 64%

    10 December, Tuesday

    Time Temperature Precipitation Wind Pressure Humidity
    00:00 +9°C° 0 mm 2 mps 566 mmHg 62%
    01:00 +9°C° 0 mm 2 mps 565 mmHg 60%
    02:00 +9°C° 0 mm 2 mps 565 mmHg 58%
    03:00 +8°C° 0 mm 2 mps 565 mmHg 55%
    04:00 +8°C° 0 mm 2 mps 565 mmHg 53%
    05:00 +10°C° 0 mm 2 mps 566 mmHg 53%
    06:00 +12°C° 0 mm 1 mps 567 mmHg 52%
    07:00 +13°C° 0 mm 1 mps 568 mmHg 52%
    08:00 +15°C° 0 mm 1 mps 570 mmHg 48%
    09:00 +19°C° 0 mm 1 mps 571 mmHg 44%
    10:00 +21°C° 0 mm 1 mps 572 mmHg 40%
    11:00 +20°C° 0 mm 2 mps 572 mmHg 42%
    12:00 +21°C° 0 mm 2 mps 571 mmHg 44%
    13:00 +23°C° 0 mm 2 mps 571 mmHg 46%
    14:00 +20°C° 0.1 mm 2 mps 570 mmHg 54%
    15:00 +20°C° 0.1 mm 1 mps 569 mmHg 61%
    16:00 +19°C° 0.1 mm 1 mps 568 mmHg 69%
    17:00 +18°C° 0 mm 1 mps 568 mmHg 77%
    18:00 +15°C° 0 mm 1 mps 567 mmHg 85%
    19:00 +12°C° 0 mm 0 mps 567 mmHg 93%
    20:00 +12°C° 0 mm 0 mps 567 mmHg 92%
    21:00 +12°C° 0 mm 0 mps 567 mmHg 90%
    22:00 +11°C° 0 mm 0 mps 568 mmHg 89%
    23:00 +11°C° 0 mm 0 mps 567 mmHg 87%

    11 December, Wednesday

    Time Temperature Precipitation Wind Pressure Humidity
    00:00 +11°C° 0 mm 0 mps 567 mmHg 85%
    01:00 +12°C° 0 mm 1 mps 567 mmHg 83%
    02:00 +11°C° 0 mm 1 mps 566 mmHg 81%
    03:00 +11°C° 0 mm 1 mps 566 mmHg 79%
    04:00 +11°C° 0 mm 1 mps 566 mmHg 77%
    05:00 +12°C° 0 mm 1 mps 567 mmHg 74%
    06:00 +13°C° 0 mm 1 mps 568 mmHg 71%
    07:00 +13°C° 0 mm 0 mps 569 mmHg 68%
    08:00 +16°C° 0 mm 1 mps 570 mmHg 64%
    09:00 +18°C° 0 mm 1 mps 571 mmHg 60%
    10:00 +20°C° 0 mm 1 mps 572 mmHg 56%
    11:00 +21°C° 0.1 mm 1 mps 571 mmHg 59%
    12:00 +20°C° 0.1 mm 2 mps 570 mmHg 62%
    13:00 +20°C° 0.1 mm 2 mps 570 mmHg 65%
    14:00 +19°C° 0.2 mm 2 mps 569 mmHg 71%
    15:00 +19°C° 0.2 mm 2 mps 568 mmHg 76%
    16:00 +19°C° 0.2 mm 1 mps 567 mmHg 82%
    17:00 +18°C° 0.2 mm 1 mps 567 mmHg 86%
    18:00 +15°C° 0.2 mm 1 mps 567 mmHg 91%
    19:00 +13°C° 0.2 mm 0 mps 567 mmHg 96%
    20:00 +13°C° 0.2 mm 0 mps 568 mmHg 95%
    21:00 +12°C° 0.2 mm 0 mps 568 mmHg 95%
    22:00 +12°C° 0.2 mm 0 mps 568 mmHg 94%
    23:00 +12°C° 0 mm 0 mps 567 mmHg 93%
    Show more